Temp
65 64 66 67 68 68 67 68 69 69 70 70 69 71 71 71 70 69 70 69 69 70 69 67 66 67 66 66 65 65 65 64 63 60 59 60 58 59 62 62 62 64 62 60 58 53 51 50 52 58 59 57 55 55 56 54 54 55 55 56 58 59 58
66 67 68 68 68 67 66 68 67 69 69 69 70 69 70 70 70 69 70 69 68 69 70 68 67 66 65 65 65 65 65 65 64 62 61 59 60 59 61 61 62 61 62 61 61 60 53 48 50 52 53 56 56 55 56 57 55 56 56 56 58 59 58
67 67 68 67 67 67 67 66 67 67 68 68 68 69 69 71 70 70 70 69 68 69 69 69 68 66 66 66 66 65 65 64 64 63 62 62 63 63 62 61 59 58 59 60 59 58 57 55 49 51 55 52 50 53 56 55 56 57 58 57 58 59 57
66 65 65 65 67 66 66 67 66 66 67 67 68 67 68 70 69 69 68 69 69 68 68 69 68 67 66 66 66 66 66 64 64 64 64 63 63 63 62 62 60 58 56 56 57 58 57 55 54 52 53 53 52 51 54 57 58 59 58 58 58 58 58
66 67 64 64 66 67 66 66 67 67 66 67 67 67 66 68 68 67 68 68 68 67 67 68 68 69 69 68 66 65 66 65 65 65 64 63 62 62 62 63 62 62 59 57 59 60 58 57 55 53 52 53 54 53 54 56 59 59 59 58 58 58 58
65 66 66 65 65 65 65 66 66 66 66 65 66 66 66 66 67 66 66 66 67 67 68 68 68 67 68 68 67 66 66 65 65 64 63 63 63 62 61 62 63 63 60 58 60 60 60 59 58 54 55 56 51 53 53 55 54 58 58 58 58 58 58
65 65 65 65 65 65 66 65 66 65 65 64 65 65 66 67 67 67 66 66 67 68 68 68 68 67 67 68 67 66 66 65 65 64 65 64 64 63 63 63 64 64 62 61 60 59 58 58 57 54 55 58 57 55 54 54 55 55 56 58 58 59 58
66 65 65 65 64 64 65 66 65 65 66 65 65 65 66 66 66 67 66 66 67 67 68 67 68 68 67 67 67 66 66 66 65 65 65 65 64 64 63 63 64 65 64 64 61 58 59 58 58 57 56 54 57 59 56 56 56 54 54 57 58 59 59
65 66 65 65 65 65 65 66 66 65 65 66 65 65 65 66 66 66 67 66 67 67 68 68 68 68 67 67 67 66 66 67 66 65 65 65 64 65 65 65 65 64 65 65 63 60 60 60 59 59 58 56 54 54 57 55 54 55 58 57 60 59 59
64 64 64 64 65 65 64 65 66 66 66 65 65 65 65 65 66 65 66 66 66 67 67 67 68 68 68 67 67 66 65 67 67 65 65 65 65 66 66 65 65 65 64 66 64 62 61 61 60 59 59 56 56 55 50 53 53 53 55 57 54 56 60
65 65 65 65 66 65 65 65 66 66 65 65 65 65 65 65 65 65 66 66 67 67 67 67 68 68 67 67 67 66 66 67 67 66 66 65 65 66 67 66 66 65 66 65 65 65 63 62 60 60 59 59 60 57 56 53 52 55 54 58 56 54 59
65 65 65 66 65 66 66 65 66 65 66 65 65 65 65 65 65 65 66 66 66 67 67 67 68 68 68 67 67 66 67 67 67 66 65 65 65 66 66 66 66 66 67 66 66 66 66 64 62 61 61 63 63 61 56 56 54 55 59 56 58 60 58
66 65 65 65 65 65 66 66 66 65 64 65 65 65 66 65 65 65 66 66 66 66 67 67 67 68 67 67 67 66 66 67 67 66 66 66 66 66 67 66 66 66 67 67 66 66 65 66 65 63 63 63 63 63 62 56 54 53 58 59 61 63 63
63 65 64 65 64 64 64 64 64 65 66 64 65 65 65 65 66 65 66 66 67 67 66 66 66 67 67 66 66 66 66 66 66 66 66 66 66 66 66 67 67 67 68 66 66 67 66 66 66 65 64 63 63 64 62 60 57 54 56 60 61 61 60
64 64 63 64 64 64 64 63 64 66 65 64 65 65 66 65 66 66 66 67 67 67 67 67 66 66 66 65 66 66 65 65 65 65 65 65 66 66 66 66 66 67 67 67 67 67 67 66 66 65 65 64 62 62 63 58 58 60 58 62 62 65 64
63 62 62 63 63 64 63 63 65 64 64 64 66 65 65 66 65 66 67 66 67 66 66 66 65 65 65 65 66 65 66 66 65 64 64 64 65 66 65 65 65 66 66 66 66 66 66 66 66 65 65 66 64 64 64 63 60 60 59 60 63 64 64
62 62 62 62 62 62 63 63 64 64 64 65 65 65 66 66 66 66 66 67 67 66 66 65 66 66 65 65 65 65 66 66 66 65 64 65 64 65 65 64 64 65 65 65 65 65 66 66 66 65 64 65 65 65 65 66 66 64 63 60 61 63 64
62 61 61 62 61 62 63 63 64 65 64 64 65 66 66 67 66 66 65 66 66 66 66 66 66 66 66 66 66 65 66 66 65 65 65 64 64 65 64 64 64 65 64 63 64 64 64 64 65 65 64 66 66 66 66 66 66 67 64 61 61 64 66
61 61 61 61 61 62 63 63 64 64 65 64 65 65 65 65 65 67 67 66 66 66 66 65 66 66 67 66 66 66 65 66 66 66 65 65 65 65 64 64 64 64 63 62 62 62 63 64 65 64 63 64 66 66 65 65 65 66 65 63 64 62 64
62 61 61 61 62 63 63 63 64 64 64 64 64 65 65 65 65 66 66 65 64 64 64 64 64 65 66 66 66 66 65 65 65 65 65 66 66 66 66 65 64 63 62 61 60 60 61 62 63 63 63 64 66 65 65 65 65 65 65 62 62 64 63
62 62 62 62 62 62 62 63 63 63 64 63 63 65 65 64 65 66 65 65 64 63 63 62 61 62 64 65 65 65 65 64 65 65 65 65 65 66 66 65 64 63 61 60 58 59 58 59 62 62 63 64 65 65 64 65 64 64 63 64 63 60 62
63 62 62 62 62 61 61 62 62 63 63 63 63 64 64 65 65 65 65 64 64 63 61 59 57 55 58 63 65 64 64 63 64 64 65 65 65 66 67 65 63 61 59 56 53 53 53 53 58 59 59 61 62 64 65 64 63 63 63 63 62 64 61
63 62 62 62 62 62 62 62 62 62 62 63 63 63 64 64 65 64 64 64 62 61 59 58 49 45 46 54 62 64 64 64 64 64 63 63 63 65 65 66 62 57 57 57 55 52 50 50 51 55 56 57 59 62 62 62 61 62 62 61 61 61 60
63 62 62 62 62 62 62 62 61 61 61 61 61 62 62 63 63 63 63 62 61 60 58 54 43 42 43 44 55 62 62 62 63 63 64 62 61 62 64 65 64 61 60 59 61 51 51 50 50 49 50 50 52 57 59 59 60 60 61 61 61 60 58
64 62 62 63 63 62 62 62 62 61 61 60 61 61 61 61 61 62 62 62 61 59 57 45 40 42 42 42 46 58 63 62 61 62 62 62 62 62 62 63 63 64 62 59 61 63 59 52 51 50 50 49 48 47 47 55 57 59 59 59 59 59 60
64 63 63 63 62 62 62 62 61 61 60 60 60 60 60 60 60 61 61 61 60 60 58 44 40 41 42 41 42 51 64 62 60 61 61 61 61 61 61 61 62 62 63 56 59 60 62 63 57 52 54 52 51 49 45 44 48 58 61 60 59 59 59
64 63 62 62 62 62 61 61 60 60 60 60 60 59 59 59 59 60 60 60 60 59 56 45 40 40 42 40 42 46 64 61 60 61 60 60 60 59 59 60 60 60 61 60 57 55 58 62 63 64 64 64 63 60 54 52 51 52 58 60 59 58 58
63 63 63 62 61 61 60 59 60 60 60 60 59 59 59 59 58 59 60 60 60 58 54 40 41 40 41 41 41 47 63 61 61 60 60 60 59 58 58 59 59 59 59 58 53 47 52 57 62 63 63 63 63 62 60 60 59 60 61 62 61 60 58
63 63 62 62 61 60 59 59 59 59 59 60 60 60 60 60 59 59 60 60 60 58 54 40 40 41 40 42 42 61 62 62 60 60 60 60 59 57 57 57 58 58 58 56 47 40 44 51 61 61 60 61 62 62 61 56 49 51 55 58 60 60 59
63 63 62 62 61 60 59 58 59 60 59 59 59 59 59 59 60 60 59 60 59 59 57 45 39 40 41 40 48 63 62 62 62 60 59 60 60 57 55 54 55 56 56 54 43 39 40 45 62 60 60 60 60 62 62 60 46 45 44 44 42 42 42
64 63 63 62 61 59 60 60 60 60 60 59 59 59 60 60 60 60 59 58 58 58 57 47 39 41 41 40 47 60 63 62 60 60 60 60 60 58 51 44 48 52 52 50 40 39 39 50 61 60 60 59 60 60 61 62 64 61 45 44 43 43 44
64 63 63 62 60 59 59 60 60 60 60 60 59 61 61 61 60 60 59 58 54 57 58 52 42 40 40 41 48 60 62 62 59 59 60 60 60 60 58 50 43 43 45 43 38 39 39 47 59 58 59 60 59 59 58 62 60 60 61 61 61 60 57
64 64 64 62 61 61 61 60 59 59 59 62 62 61 61 61 59 59 59 59 58 58 57 55 48 39 40 41 41 55 61 59 58 58 59 60 59 59 59 58 51 40 38 38 38 38 40 39 52 57 57 57 56 55 58 60 60 59 62 62 63 63 62
63 64 64 62 61 61 61 60 59 59 59 60 60 59 57 58 58 58 59 58 58 57 56 55 49 38 40 40 40 45 60 56 58 59 60 59 60 58 58 57 55 44 38 39 39 39 39 40 43 55 53 53 52 49 48 59 62 60 62 62 64 64 64
64 64 64 62 60 60 60 60 59 59 60 59 57 57 57 59 59 58 58 58 58 57 54 49 54 43 39 40 40 39 53 55 52 56 58 58 58 57 56 55 54 44 38 39 39 39 39 40 42 53 49 40 39 40 53 62 64 64 63 63 64 64 64
63 66 63 62 61 59 59 59 58 59 58 57 57 56 57 57 58 58 58 59 59 58 57 54 44 49 40 39 38 40 38 46 41 54 56 56 55 56 56 55 52 42 38 39 39 39 40 40 48 47 39 40 41 40 51 63 62 62 61 62 61 61 61
64 64 62 62 61 60 59 59 59 59 58 58 59 58 59 58 59 58 58 58 59 59 59 58 47 43 45 37 39 38 39 38 39 50 55 55 56 54 54 52 48 38 38 39 40 39 40 43 47 40 41 41 42 48 61 61 61 61 60 61 61 60 59
MSLP
1018.29 1018.37 1018.17 1018.01 1017.93 1017.81 1017.77 1017.65 1017.41 1017.33 1017.25 1017.17 1017.09 1016.89 1016.69 1016.53 1016.33 1016.17 1015.89 1015.77 1015.53 1015.25 1015.13 1015.09 1014.93 1014.73 1014.69 1014.49 1014.33 1014.17 1013.97 1013.73 1013.65 1013.57 1013.41 1013.13 1012.97 1012.77 1012.25 1011.85 1011.57 1011.29 1011.05 1011.09 1010.97 1011.01 1010.57 1010.33 1009.73 1009.09 1008.85 1008.85 1008.69 1008.49 1008.05 1007.69 1007.45 1007.17 1006.81 1006.33 1005.77 1005.29 1005.17
1018.29 1018.17 1017.93 1017.93 1017.93 1017.89 1017.89 1017.69 1017.69 1017.45 1017.41 1017.41 1017.25 1017.13 1016.93 1016.65 1016.45 1016.29 1016.05 1015.93 1015.81 1015.57 1015.25 1015.17 1015.17 1015.09 1014.97 1014.77 1014.49 1014.25 1014.05 1013.85 1013.73 1013.69 1013.53 1013.49 1013.21 1012.97 1012.29 1011.93 1011.69 1011.41 1011.01 1010.85 1010.69 1010.41 1010.69 1011.25 1010.41 1009.97 1009.49 1008.97 1008.77 1008.61 1008.33 1008.09 1007.81 1007.49 1007.17 1006.89 1006.49 1006.09 1005.97
1018.29 1018.21 1018.05 1018.09 1018.01 1017.89 1017.85 1017.81 1017.77 1017.69 1017.53 1017.49 1017.41 1017.29 1017.13 1016.77 1016.61 1016.41 1016.17 1016.09 1015.97 1015.81 1015.53 1015.33 1015.25 1015.21 1015.05 1014.81 1014.65 1014.53 1014.37 1014.13 1013.97 1013.81 1013.65 1013.41 1013.13 1012.85 1012.45 1012.29 1012.09 1011.89 1011.37 1011.09 1010.89 1010.81 1010.49 1010.61 1011.01 1010.33 1009.73 1009.61 1009.37 1009.21 1008.81 1008.61 1008.29 1007.93 1007.65 1007.41 1006.93 1006.73 1006.73
1018.53 1018.45 1018.37 1018.21 1018.01 1018.05 1017.97 1017.85 1017.85 1017.85 1017.77 1017.73 1017.57 1017.49 1017.33 1017.05 1016.85 1016.69 1016.49 1016.21 1016.09 1015.97 1015.73 1015.53 1015.37 1015.21 1015.13 1015.01 1014.89 1014.65 1014.37 1014.29 1014.05 1013.85 1013.69 1013.49 1013.21 1012.93 1012.73 1012.37 1012.25 1012.41 1012.41 1012.09 1011.61 1011.21 1011.01 1010.81 1010.53 1010.45 1010.17 1009.93 1009.97 1009.69 1009.29 1009.01 1008.57 1008.17 1008.01 1007.81 1007.61 1007.53 1007.45
1018.61 1018.49 1018.57 1018.53 1018.29 1018.13 1018.09 1018.01 1017.85 1017.85 1017.89 1017.81 1017.69 1017.61 1017.61 1017.33 1017.13 1016.97 1016.73 1016.45 1016.25 1016.13 1015.93 1015.69 1015.61 1015.29 1015.09 1015.01 1014.97 1014.77 1014.49 1014.29 1014.17 1013.85 1013.69 1013.57 1013.37 1013.05 1012.69 1012.49 1012.33 1012.25 1012.49 1012.49 1012.01 1011.57 1011.37 1011.17 1011.05 1010.85 1010.73 1010.37 1009.93 1009.85 1009.81 1009.29 1008.89 1008.61 1008.41 1008.33 1008.33 1008.33 1008.25
1018.89 1018.77 1018.65 1018.61 1018.57 1018.49 1018.41 1018.21 1018.09 1017.93 1018.05 1017.97 1017.97 1017.85 1017.77 1017.61 1017.37 1017.21 1017.01 1016.81 1016.53 1016.29 1016.13 1015.93 1015.77 1015.69 1015.33 1015.01 1014.97 1014.81 1014.65 1014.53 1014.33 1014.21 1013.97 1013.77 1013.53 1013.33 1013.13 1012.65 1012.45 1012.25 1012.49 1012.57 1012.33 1012.05 1011.61 1011.29 1011.09 1011.13 1010.61 1010.17 1010.37 1009.89 1010.13 1009.69 1009.49 1009.13 1009.01 1008.97 1009.01 1008.97 1008.89
1019.05 1019.01 1018.93 1018.81 1018.77 1018.69 1018.53 1018.37 1018.21 1018.21 1018.09 1018.29 1018.13 1018.13 1018.01 1017.77 1017.61 1017.45 1017.29 1017.05 1016.81 1016.53 1016.25 1016.09 1015.89 1015.77 1015.61 1015.29 1015.21 1015.09 1014.93 1014.81 1014.57 1014.37 1014.05 1013.93 1013.73 1013.53 1013.25 1012.85 1012.57 1012.37 1012.37 1012.41 1012.41 1012.25 1012.01 1011.65 1011.41 1011.53 1010.97 1009.97 1009.65 1009.69 1010.25 1009.81 1009.89 1009.37 1009.33 1009.49 1009.49 1009.45 1009.45
1019.09 1019.05 1019.05 1019.09 1019.05 1018.93 1018.73 1018.53 1018.53 1018.45 1018.29 1018.33 1018.37 1018.29 1018.21 1018.01 1017.81 1017.61 1017.45 1017.21 1017.01 1016.77 1016.49 1016.25 1016.01 1015.81 1015.73 1015.49 1015.37 1015.29 1015.09 1014.93 1014.73 1014.49 1014.21 1014.01 1013.85 1013.57 1013.29 1013.09 1012.73 1012.45 1012.29 1012.17 1012.25 1012.45 1012.29 1012.09 1011.89 1011.61 1011.33 1010.81 1009.69 1009.41 1009.73 1009.93 1009.89 1010.17 1010.25 1009.97 1009.89 1009.69 1009.73
1019.33 1019.21 1019.17 1019.21 1019.13 1019.09 1019.01 1018.69 1018.53 1018.57 1018.61 1018.37 1018.53 1018.45 1018.37 1018.17 1018.01 1017.81 1017.53 1017.37 1017.17 1016.93 1016.69 1016.45 1016.21 1015.97 1015.81 1015.65 1015.45 1015.37 1015.21 1015.01 1014.81 1014.65 1014.45 1014.13 1013.89 1013.53 1013.29 1013.09 1012.77 1012.69 1012.45 1012.25 1012.33 1012.33 1012.29 1012.29 1012.13 1011.85 1011.65 1011.29 1010.77 1009.89 1009.77 1009.89 1010.13 1010.37 1010.33 1010.17 1009.93 1010.09 1009.97
1019.49 1019.49 1019.41 1019.37 1019.25 1019.21 1019.17 1019.01 1018.77 1018.77 1018.73 1018.77 1018.69 1018.57 1018.49 1018.33 1018.13 1018.01 1017.69 1017.45 1017.29 1017.05 1016.85 1016.61 1016.37 1016.17 1015.97 1015.77 1015.61 1015.49 1015.33 1015.05 1014.81 1014.73 1014.53 1014.29 1014.01 1013.65 1013.37 1013.13 1012.89 1012.77 1012.65 1012.37 1012.33 1012.33 1012.29 1012.13 1012.09 1012.01 1011.97 1011.89 1011.45 1010.69 1011.01 1010.37 1010.73 1010.89 1010.85 1010.65 1010.85 1010.65 1010.25
1019.61 1019.57 1019.49 1019.33 1019.21 1019.13 1019.13 1019.13 1018.89 1018.81 1018.85 1018.89 1018.77 1018.65 1018.53 1018.41 1018.21 1018.09 1017.85 1017.61 1017.41 1017.21 1017.01 1016.81 1016.53 1016.33 1016.13 1015.97 1015.81 1015.69 1015.53 1015.17 1014.93 1014.81 1014.69 1014.49 1014.21 1013.77 1013.49 1013.29 1013.05 1012.89 1012.69 1012.53 1012.29 1012.17 1012.21 1012.05 1012.01 1012.01 1011.93 1011.69 1011.37 1011.05 1010.57 1010.65 1011.29 1011.21 1011.17 1010.89 1011.13 1011.25 1010.77
1019.69 1019.61 1019.57 1019.49 1019.37 1019.25 1019.21 1019.25 1019.09 1019.05 1018.97 1018.97 1018.81 1018.73 1018.57 1018.41 1018.29 1018.13 1017.93 1017.77 1017.57 1017.33 1017.13 1016.97 1016.69 1016.45 1016.29 1016.13 1015.97 1015.81 1015.61 1015.29 1015.09 1015.09 1014.93 1014.69 1014.45 1014.01 1013.69 1013.53 1013.33 1013.09 1012.73 1012.53 1012.37 1012.09 1011.97 1011.89 1011.85 1011.81 1011.61 1011.29 1011.13 1010.97 1010.85 1010.65 1010.77 1011.61 1011.17 1011.25 1011.17 1011.09 1011.17
1019.73 1019.69 1019.65 1019.61 1019.49 1019.45 1019.37 1019.29 1019.29 1019.21 1019.29 1019.05 1018.93 1018.81 1018.65 1018.53 1018.37 1018.25 1018.01 1017.89 1017.65 1017.49 1017.29 1017.09 1016.89 1016.61 1016.45 1016.33 1016.17 1016.05 1015.81 1015.53 1015.33 1015.17 1014.93 1014.85 1014.65 1014.33 1013.93 1013.73 1013.57 1013.25 1012.93 1012.61 1012.37 1012.21 1012.09 1011.81 1011.77 1011.73 1011.57 1011.37 1011.17 1011.05 1010.65 1011.09 1011.25 1011.65 1011.57 1011.37 1011.13 1010.97 1011.17
1019.97 1019.81 1019.81 1019.73 1019.65 1019.65 1019.69 1019.57 1019.61 1019.33 1019.25 1019.25 1019.05 1018.89 1018.73 1018.69 1018.49 1018.37 1018.13 1017.97 1017.77 1017.61 1017.41 1017.29 1017.13 1016.85 1016.65 1016.53 1016.41 1016.29 1016.09 1015.85 1015.61 1015.41 1015.13 1014.93 1014.81 1014.61 1014.33 1014.01 1013.81 1013.45 1013.13 1012.93 1012.61 1012.29 1012.17 1011.93 1011.69 1011.57 1011.57 1011.45 1011.29 1011.05 1011.01 1010.77 1010.81 1011.73 1011.73 1011.53 1011.33 1011.33 1011.49
1019.97 1019.93 1019.93 1019.89 1019.77 1019.73 1019.77 1019.77 1019.73 1019.49 1019.41 1019.37 1019.21 1019.05 1018.89 1018.81 1018.65 1018.45 1018.29 1018.05 1017.93 1017.77 1017.61 1017.49 1017.37 1017.13 1016.97 1016.77 1016.61 1016.49 1016.29 1016.09 1015.93 1015.73 1015.45 1015.21 1015.05 1014.81 1014.61 1014.41 1014.13 1013.81 1013.49 1013.17 1012.89 1012.61 1012.33 1012.17 1011.97 1011.77 1011.49 1011.45 1011.45 1011.37 1011.13 1011.53 1011.01 1010.69 1011.09 1011.09 1011.13 1011.05 1011.01
1020.09 1020.09 1020.09 1020.01 1020.01 1019.89 1019.89 1019.89 1019.77 1019.65 1019.53 1019.41 1019.25 1019.17 1019.09 1018.89 1018.77 1018.53 1018.33 1018.21 1018.09 1017.97 1017.81 1017.69 1017.57 1017.37 1017.21 1017.01 1016.77 1016.61 1016.45 1016.29 1016.13 1015.97 1015.73 1015.57 1015.37 1015.05 1014.85 1014.73 1014.49 1014.21 1013.81 1013.53 1013.17 1012.93 1012.73 1012.41 1012.21 1012.01 1011.81 1011.53 1011.41 1011.21 1011.05 1011.05 1011.25 1010.85 1011.01 1011.17 1011.13 1010.97 1011.05
1020.21 1020.17 1020.13 1020.13 1020.21 1020.09 1020.01 1019.97 1019.85 1019.77 1019.69 1019.49 1019.37 1019.29 1019.17 1019.01 1018.81 1018.69 1018.49 1018.29 1018.21 1018.13 1018.01 1017.85 1017.69 1017.57 1017.45 1017.25 1017.01 1016.77 1016.57 1016.41 1016.29 1016.09 1016.01 1015.81 1015.65 1015.37 1015.17 1015.01 1014.85 1014.57 1014.29 1014.01 1013.69 1013.33 1013.09 1012.81 1012.49 1012.37 1012.13 1011.77 1011.49 1011.45 1011.21 1011.05 1010.89 1010.81 1010.93 1011.41 1011.45 1011.21 1011.05
1020.25 1020.33 1020.33 1020.25 1020.33 1020.17 1020.13 1020.01 1020.01 1019.85 1019.77 1019.61 1019.53 1019.33 1019.17 1019.13 1018.97 1018.77 1018.69 1018.49 1018.37 1018.29 1018.17 1018.01 1017.85 1017.65 1017.49 1017.29 1017.09 1016.97 1016.73 1016.57 1016.41 1016.25 1016.17 1016.01 1015.81 1015.65 1015.45 1015.29 1015.21 1014.93 1014.73 1014.49 1014.21 1013.93 1013.57 1013.25 1012.85 1012.65 1012.37 1011.97 1011.65 1011.49 1011.37 1011.25 1011.09 1010.81 1011.05 1011.41 1011.37 1011.25 1011.05
1020.33 1020.37 1020.41 1020.37 1020.37 1020.29 1020.21 1020.13 1020.05 1019.97 1019.97 1019.81 1019.69 1019.53 1019.45 1019.33 1019.21 1018.93 1018.85 1018.73 1018.65 1018.53 1018.41 1018.25 1018.05 1017.81 1017.61 1017.41 1017.21 1017.09 1016.93 1016.73 1016.53 1016.41 1016.29 1016.17 1015.97 1015.85 1015.69 1015.61 1015.45 1015.33 1015.25 1015.13 1014.85 1014.53 1014.17 1013.69 1013.25 1012.97 1012.85 1012.49 1011.97 1011.69 1011.53 1011.45 1011.29 1010.97 1010.93 1011.17 1011.05 1011.33 1011.21
1020.33 1020.41 1020.49 1020.49 1020.45 1020.33 1020.29 1020.33 1020.09 1020.09 1020.09 1020.01 1019.81 1019.69 1019.57 1019.49 1019.41 1019.25 1019.13 1019.01 1018.97 1018.93 1018.89 1018.73 1018.45 1018.13 1017.81 1017.61 1017.37 1017.25 1017.13 1016.89 1016.65 1016.53 1016.41 1016.29 1016.17 1016.01 1015.89 1015.85 1015.77 1015.77 1015.77 1015.77 1015.57 1015.29 1014.93 1014.37 1013.77 1013.49 1013.13 1012.73 1012.29 1012.05 1011.73 1011.65 1011.53 1011.37 1011.13 1011.25 1011.25 1011.01 1011.17
1020.37 1020.49 1020.53 1020.53 1020.53 1020.53 1020.45 1020.41 1020.41 1020.33 1020.21 1020.17 1020.05 1019.89 1019.81 1019.65 1019.53 1019.41 1019.45 1019.37 1019.37 1019.37 1019.33 1019.29 1019.17 1018.77 1018.17 1017.85 1017.65 1017.49 1017.33 1017.21 1016.89 1016.65 1016.49 1016.45 1016.33 1016.13 1016.01 1016.13 1016.21 1016.25 1016.29 1016.29 1016.37 1016.09 1015.85 1015.37 1014.53 1014.09 1013.69 1013.17 1012.69 1012.29 1012.01 1011.85 1011.73 1011.69 1011.61 1011.37 1011.33 1011.53 1011.37
1020.37 1020.53 1020.57 1020.57 1020.57 1020.61 1020.61 1020.65 1020.53 1020.41 1020.41 1020.33 1020.33 1020.17 1020.01 1019.81 1019.73 1019.57 1019.53 1019.61 1019.61 1019.69 1019.73 1019.81 1019.97 1019.93 1019.21 1018.33 1017.89 1017.65 1017.53 1017.49 1017.21 1016.97 1016.77 1016.65 1016.57 1016.37 1016.13 1016.25 1016.65 1016.81 1016.89 1016.89 1016.85 1016.77 1016.73 1016.45 1015.61 1014.97 1014.61 1014.05 1013.33 1012.65 1012.17 1012.21 1012.17 1012.05 1011.93 1011.85 1011.81 1011.65 1011.73
1020.37 1020.49 1020.61 1020.61 1020.61 1020.65 1020.61 1020.69 1020.65 1020.57 1020.53 1020.49 1020.45 1020.41 1020.25 1020.13 1019.93 1019.81 1019.73 1019.81 1019.97 1020.01 1020.13 1020.33 1020.89 1020.77 1020.41 1019.61 1018.41 1017.93 1017.69 1017.61 1017.37 1017.25 1017.05 1016.93 1016.81 1016.61 1016.41 1016.37 1016.81 1017.13 1016.97 1016.77 1016.65 1016.53 1016.57 1016.61 1016.53 1016.17 1015.73 1015.13 1014.45 1013.49 1013.01 1012.77 1012.73 1012.53 1012.25 1012.17 1012.25 1012.17 1012.17
1020.29 1020.41 1020.57 1020.65 1020.69 1020.57 1020.65 1020.73 1020.73 1020.69 1020.73 1020.77 1020.73 1020.61 1020.49 1020.37 1020.33 1020.21 1020.09 1020.13 1020.21 1020.33 1020.53 1020.97 1021.29 1020.97 1020.49 1019.97 1019.17 1018.25 1018.09 1017.93 1017.77 1017.49 1017.25 1017.21 1017.17 1017.01 1016.69 1016.65 1016.73 1016.81 1016.77 1016.57 1016.21 1016.37 1016.21 1016.25 1016.37 1016.37 1016.33 1016.13 1015.69 1014.93 1014.17 1013.61 1013.29 1013.09 1012.81 1012.69 1012.65 1012.65 1012.73
1020.13 1020.41 1020.49 1020.53 1020.61 1020.69 1020.73 1020.69 1020.69 1020.77 1020.81 1020.85 1020.81 1020.77 1020.77 1020.69 1020.61 1020.53 1020.41 1020.33 1020.41 1020.53 1020.81 1021.49 1021.41 1021.09 1020.65 1020.13 1019.69 1018.85 1018.29 1018.17 1018.09 1017.89 1017.77 1017.65 1017.45 1017.37 1017.13 1016.89 1016.93 1016.69 1016.97 1017.25 1016.65 1016.09 1015.97 1015.97 1015.93 1015.93 1016.09 1016.05 1015.85 1015.73 1015.49 1015.05 1014.41 1013.85 1013.61 1013.37 1013.25 1013.25 1013.01
1020.09 1020.37 1020.49 1020.53 1020.77 1020.77 1020.73 1020.73 1020.77 1020.85 1021.01 1021.05 1021.01 1020.97 1020.97 1020.97 1020.89 1020.77 1020.69 1020.61 1020.61 1020.69 1020.89 1021.65 1021.53 1021.25 1020.81 1020.41 1019.93 1019.25 1018.49 1018.53 1018.41 1018.33 1018.21 1018.09 1017.93 1017.85 1017.65 1017.37 1017.17 1017.21 1017.09 1017.37 1017.01 1016.77 1016.09 1015.61 1015.61 1015.61 1015.53 1015.89 1015.65 1015.61 1015.49 1015.37 1015.05 1014.69 1014.13 1013.73 1013.65 1013.61 1013.89
1020.05 1020.33 1020.53 1020.69 1020.77 1020.73 1020.77 1020.93 1021.09 1021.05 1021.09 1021.09 1021.13 1021.17 1021.17 1021.17 1021.13 1021.01 1020.97 1020.77 1020.77 1021.01 1021.25 1021.85 1021.77 1021.37 1021.01 1020.61 1020.13 1019.65 1018.77 1018.81 1018.73 1018.65 1018.61 1018.53 1018.37 1018.33 1018.17 1017.85 1017.65 1017.53 1017.53 1017.49 1017.69 1017.69 1017.05 1016.05 1015.45 1015.25 1015.13 1015.09 1015.01 1015.21 1015.33 1015.29 1015.17 1014.85 1014.61 1014.45 1014.37 1014.41 1014.53
1020.01 1020.29 1020.49 1020.69 1020.77 1020.81 1020.97 1021.17 1021.17 1021.09 1021.09 1021.17 1021.21 1021.17 1021.17 1021.21 1021.41 1021.29 1021.13 1020.93 1020.89 1021.13 1021.73 1022.17 1021.85 1021.53 1021.09 1020.69 1020.21 1019.65 1018.93 1018.97 1018.81 1018.85 1018.85 1018.85 1018.85 1018.85 1018.69 1018.37 1018.09 1018.01 1017.97 1017.93 1018.37 1018.85 1017.89 1016.89 1015.85 1015.41 1015.29 1015.17 1015.25 1015.33 1015.57 1015.61 1015.61 1015.29 1014.97 1014.77 1014.81 1014.81 1014.97
1020.01 1020.29 1020.49 1020.65 1020.77 1020.89 1021.13 1021.21 1021.29 1021.33 1021.33 1021.33 1021.37 1021.29 1021.37 1021.37 1021.37 1021.33 1021.25 1021.09 1020.97 1021.09 1021.73 1022.25 1022.01 1021.69 1021.21 1020.69 1020.13 1019.09 1018.93 1018.89 1018.97 1018.97 1019.01 1019.01 1019.17 1019.29 1019.25 1018.97 1018.57 1018.41 1018.41 1018.33 1018.93 1018.93 1018.41 1017.53 1016.05 1015.73 1015.57 1015.61 1015.41 1015.29 1015.57 1016.05 1016.05 1016.17 1015.97 1015.69 1015.49 1015.45 1015.37
1019.89 1020.13 1020.33 1020.53 1020.69 1021.01 1021.21 1021.33 1021.33 1021.29 1021.41 1021.41 1021.45 1021.45 1021.53 1021.53 1021.45 1021.41 1021.37 1021.21 1021.13 1021.13 1021.45 1022.25 1022.17 1021.85 1021.41 1020.97 1020.25 1019.09 1019.05 1018.85 1018.93 1019.05 1019.17 1019.09 1019.13 1019.61 1019.85 1019.77 1019.33 1019.01 1018.81 1018.93 1019.49 1019.21 1018.53 1017.57 1016.09 1016.09 1015.85 1015.81 1015.61 1015.41 1015.41 1015.81 1016.05 1015.97 1016.01 1016.05 1016.01 1015.89 1015.69
1019.81 1020.01 1020.29 1020.33 1020.69 1021.05 1021.17 1021.21 1021.33 1021.45 1021.33 1021.41 1021.49 1021.61 1021.49 1021.49 1021.49 1021.53 1021.61 1021.57 1021.69 1021.37 1021.61 1022.29 1022.37 1022.05 1021.69 1021.25 1020.73 1019.53 1019.05 1019.01 1019.17 1019.01 1019.05 1019.21 1019.05 1019.41 1020.33 1020.61 1020.29 1019.81 1019.53 1019.61 1019.97 1019.53 1018.89 1017.81 1016.57 1016.53 1016.05 1015.93 1015.65 1015.53 1015.65 1015.65 1015.49 1015.53 1015.85 1015.85 1015.81 1015.73 1015.53
1019.61 1019.89 1020.05 1020.33 1020.77 1021.05 1021.21 1021.25 1021.33 1021.45 1021.45 1021.41 1021.61 1021.45 1021.45 1021.33 1021.49 1021.57 1021.77 1021.89 1022.17 1021.69 1021.69 1022.17 1022.57 1022.41 1021.97 1021.57 1021.05 1019.85 1019.37 1019.17 1019.33 1019.33 1019.05 1019.05 1019.17 1019.13 1019.45 1020.17 1020.73 1020.85 1020.61 1020.53 1020.29 1019.81 1019.29 1018.45 1017.17 1017.09 1016.65 1016.21 1016.01 1016.13 1016.29 1015.85 1015.89 1015.81 1015.53 1015.37 1015.21 1015.25 1015.29
1019.49 1019.77 1019.93 1020.41 1020.69 1020.89 1021.13 1021.33 1021.45 1021.41 1021.41 1021.09 1021.17 1021.29 1021.41 1021.37 1021.61 1021.65 1021.85 1021.81 1021.93 1021.85 1021.89 1022.17 1022.81 1022.73 1022.37 1021.89 1021.49 1020.61 1019.81 1019.69 1019.53 1019.45 1019.33 1019.17 1019.01 1019.25 1019.29 1019.41 1020.21 1020.97 1020.93 1020.73 1020.45 1020.09 1019.61 1019.17 1018.25 1017.61 1017.37 1017.05 1017.05 1017.01 1016.89 1016.33 1016.17 1016.21 1015.61 1015.21 1015.01 1014.81 1014.85
1019.45 1019.69 1019.89 1020.33 1020.61 1020.93 1021.09 1021.29 1021.49 1021.53 1021.45 1021.33 1021.41 1021.57 1021.81 1021.69 1021.73 1021.81 1021.81 1021.89 1021.93 1022.21 1022.37 1022.25 1022.77 1023.01 1022.77 1022.41 1021.97 1021.29 1020.29 1020.53 1020.09 1019.65 1019.41 1019.33 1019.21 1019.37 1019.41 1019.69 1020.01 1021.01 1021.05 1020.85 1020.61 1020.33 1019.93 1019.49 1018.97 1018.13 1018.29 1018.17 1018.33 1018.33 1017.93 1016.65 1015.97 1015.89 1015.57 1015.37 1014.85 1014.61 1014.57
1019.33 1019.57 1019.85 1020.25 1020.61 1020.85 1021.09 1021.29 1021.45 1021.49 1021.25 1021.45 1021.73 1021.73 1021.77 1021.61 1021.53 1021.65 1021.81 1021.93 1022.01 1022.17 1022.65 1022.89 1022.57 1023.01 1023.13 1022.93 1022.57 1022.21 1021.33 1021.17 1021.33 1020.53 1019.81 1019.81 1019.69 1019.81 1019.97 1020.13 1020.45 1021.17 1021.21 1020.97 1020.69 1020.49 1020.13 1019.69 1019.33 1018.73 1019.05 1019.13 1018.69 1018.09 1017.49 1016.45 1015.89 1015.73 1015.53 1015.29 1015.01 1014.89 1014.77
1019.25 1019.33 1019.77 1020.17 1020.49 1020.77 1021.09 1021.29 1021.49 1021.53 1021.61 1021.61 1021.65 1021.69 1021.73 1021.69 1021.53 1021.49 1021.61 1021.57 1021.81 1022.05 1022.25 1022.69 1023.21 1022.97 1023.25 1023.17 1022.97 1022.65 1022.49 1022.01 1021.77 1020.77 1020.37 1020.33 1020.33 1020.25 1020.37 1020.45 1020.85 1021.49 1021.33 1021.01 1020.73 1020.57 1020.25 1019.89 1019.29 1019.41 1019.33 1018.81 1018.41 1017.89 1017.01 1016.33 1016.37 1016.05 1015.89 1015.77 1015.53 1015.33 1015.37
1019.05 1019.17 1019.69 1020.01 1020.33 1020.65 1020.93 1021.17 1021.33 1021.29 1021.45 1021.29 1021.21 1021.33 1021.21 1021.37 1021.29 1021.25 1021.29 1021.45 1021.61 1021.77 1021.93 1022.17 1023.01 1023.29 1023.21 1023.29 1023.09 1022.93 1022.69 1022.49 1022.21 1021.61 1020.97 1020.77 1020.69 1020.93 1020.85 1021.09 1021.37 1021.69 1021.37 1021.01 1020.69 1020.53 1020.29 1020.05 1019.85 1019.65 1019.17 1018.73 1018.17 1017.57 1016.97 1016.65 1016.41 1016.33 1016.17 1015.81 1015.65 1015.77 1015.85
Wind_Speed
4 3 3 3 3 4 4 5 3 4 6 6 6 7 8 8 8 8 9 9 10 11 10 10 11 12 11 11 11 10 10 10 11 10 10 11 10 9 9 10 10 10 11 9 9 8 8 11 13 11 11 11 10 12 14 14 14 13 14 14 14 15 13
2 2 2 3 3 3 5 5 4 4 5 6 6 7 7 8 8 8 8 9 10 10 9 9 10 11 11 12 12 11 10 10 10 10 9 9 9 9 9 10 10 11 10 9 11 11 11 10 10 14 13 9 9 12 13 13 13 14 14 14 12 15 14
3 3 3 3 4 4 4 5 4 4 4 4 5 7 7 8 8 9 8 8 9 9 8 9 9 9 9 10 11 10 10 10 8 8 8 7 7 9 10 10 10 9 10 10 10 11 10 9 8 12 13 14 14 11 12 12 13 14 13 13 14 15 14
4 4 4 4 4 4 4 5 4 4 4 4 4 5 7 8 8 8 8 8 7 7 8 8 8 8 8 8 8 10 10 10 8 9 9 9 9 9 9 9 9 8 9 10 10 10 9 10 10 10 10 10 10 10 12 12 14 15 13 13 14 13 14
5 4 5 5 5 6 5 5 4 4 3 4 4 5 6 8 7 8 8 8 7 7 7 7 7 8 7 7 7 7 8 10 10 10 10 9 10 9 9 8 8 7 8 8 8 8 8 8 8 8 8 8 7 7 7 9 14 17 17 16 14 13 13
5 6 5 5 5 5 5 5 4 4 4 4 5 5 6 8 7 7 8 7 7 7 7 7 6 7 7 7 8 9 9 10 9 10 9 11 10 9 9 9 8 7 6 7 7 8 7 7 7 8 8 7 6 6 8 9 10 11 15 16 14 13 14
4 4 5 5 5 4 4 5 4 4 4 5 5 5 6 7 6 6 7 7 7 7 8 7 7 7 7 6 6 7 8 7 8 9 9 10 9 10 8 8 8 7 6 7 7 7 8 8 8 8 9 8 7 8 6 8 10 10 12 14 13 13 12
3 4 5 4 5 5 4 4 5 4 4 4 5 5 6 6 6 6 7 6 7 7 7 7 7 6 7 6 6 6 6 7 8 9 9 10 10 11 10 9 8 7 7 7 8 8 7 7 7 7 8 9 8 10 10 9 9 14 11 10 12 13 12
3 3 4 4 4 4 5 4 4 5 4 4 4 5 5 5 6 6 6 6 7 6 7 7 7 6 7 6 6 7 8 7 8 11 10 10 11 12 11 10 9 9 7 7 7 7 7 6 6 6 7 8 9 10 11 11 11 11 15 10 12 14 12
4 5 4 4 4 4 4 4 4 4 5 4 4 4 5 5 5 6 6 6 6 6 7 7 7 6 6 6 6 8 9 9 9 9 10 10 11 10 10 12 10 9 9 7 7 7 7 6 6 6 6 6 8 8 8 11 11 9 12 13 10 12 13
3 4 4 5 4 4 4 4 4 4 5 4 4 4 4 4 4 5 5 5 6 6 6 6 7 7 6 6 7 7 8 9 10 10 10 10 11 10 11 12 10 10 9 9 7 7 7 7 7 6 5 4 5 7 6 8 9 7 7 10 10 9 12
3 3 4 4 4 4 5 5 5 5 5 4 5 5 4 4 4 4 4 5 5 6 6 6 6 6 6 6 6 7 8 9 10 10 10 9 9 10 11 13 12 11 11 10 9 8 6 6 6 6 5 4 5 5 7 6 8 6 6 8 8 9 9
3 4 4 4 4 5 5 5 5 5 5 5 5 5 5 5 5 5 4 5 5 5 6 6 6 6 6 6 6 7 8 10 10 10 10 10 9 10 12 12 12 12 12 10 10 9 9 7 6 6 6 6 5 6 7 6 7 6 5 6 7 10 11
2 3 4 4 4 5 5 5 5 4 4 5 6 5 6 5 5 5 5 5 5 5 6 6 6 6 6 6 6 7 8 9 10 9 10 11 11 10 11 12 13 14 13 12 11 10 9 9 8 6 6 6 7 6 7 8 7 6 4 2 4 5 5
2 3 3 4 4 4 5 5 4 4 4 5 5 6 6 5 5 5 5 5 5 6 6 6 6 6 6 6 6 6 7 9 9 10 9 11 11 10 11 12 13 13 13 13 12 12 11 9 9 8 7 6 7 7 6 6 7 7 7 3 4 5 6
2 2 3 4 5 4 4 4 4 4 5 4 5 5 5 5 5 5 5 5 6 6 6 6 6 6 6 7 7 6 7 8 9 10 10 10 11 11 11 11 12 12 11 13 13 12 12 11 10 10 9 7 7 7 6 7 5 7 7 7 5 5 6
2 2 2 3 4 4 4 3 4 4 4 4 5 5 5 5 5 5 5 6 6 6 7 6 6 6 7 7 7 7 7 7 8 9 9 10 10 10 11 11 11 12 12 13 13 12 12 11 10 9 9 8 7 7 6 5 5 5 7 7 7 5 6
2 2 3 3 4 4 3 3 3 4 4 4 5 5 5 5 5 6 6 7 7 7 7 7 7 7 6 6 7 7 7 7 8 8 8 9 8 10 10 11 11 12 12 12 12 13 12 14 11 10 10 9 7 7 6 6 6 6 6 5 6 6 5
2 2 2 2 3 3 3 3 3 3 4 4 4 5 6 6 6 6 6 7 7 8 8 8 7 7 7 7 7 7 7 7 8 8 8 8 8 8 9 10 11 12 12 12 12 12 13 14 12 12 12 10 8 7 6 7 6 5 5 6 6 6 7
2 2 2 2 2 2 3 3 3 3 3 3 4 4 5 5 5 6 6 7 7 8 9 9 8 8 7 7 7 7 7 7 8 7 8 8 7 7 9 9 10 11 11 11 12 12 13 13 12 13 12 10 9 7 6 6 6 6 6 5 5 6 6
3 2 2 1 2 3 2 2 2 2 3 3 4 5 5 5 4 5 6 6 7 7 8 9 10 10 8 7 7 7 7 7 7 8 8 7 7 7 8 9 10 10 11 10 10 10 11 10 12 12 12 11 9 7 6 6 6 6 6 7 7 6 5
2 2 1 1 2 2 2 2 2 2 2 3 3 4 4 5 5 5 6 6 7 7 7 8 8 9 10 9 7 7 7 8 8 8 8 8 7 8 8 8 9 9 9 9 10 9 10 10 9 10 11 12 11 8 6 6 6 6 6 7 7 7 7
3 2 1 1 2 2 2 2 2 2 2 2 3 3 4 4 4 5 6 6 7 6 7 6 10 14 11 9 7 7 7 7 8 7 7 7 7 8 8 8 7 9 9 8 3 6 7 8 9 9 10 11 11 9 8 8 8 7 6 7 8 8 7
3 3 2 1 1 1 2 2 2 2 3 3 2 2 3 4 5 5 5 5 6 6 6 6 12 11 12 14 10 7 7 7 7 8 8 8 8 8 8 8 7 8 10 12 5 5 3 6 4 5 6 9 11 11 9 9 9 9 9 8 8 9 8
4 4 3 2 2 2 1 1 2 2 2 2 2 2 2 4 4 4 4 5 5 6 6 9 11 11 11 13 12 8 7 6 7 7 7 8 8 8 8 8 8 7 9 12 11 8 2 3 3 5 1 5 9 9 9 9 9 10 10 9 10 10 9
5 4 3 3 2 1 2 2 2 2 3 2 2 2 3 3 4 4 4 5 5 6 6 9 11 11 11 13 13 12 6 7 7 8 8 8 8 9 8 8 7 8 8 11 11 11 11 5 3 7 7 8 8 8 7 6 7 9 9 10 10 11 10
5 5 4 3 2 2 2 3 2 2 2 2 2 2 3 3 3 4 4 4 5 5 7 9 11 11 11 12 13 12 6 6 7 8 8 9 8 9 9 8 8 8 9 10 11 13 12 9 8 6 6 6 8 9 10 12 9 9 11 10 10 9 10
6 5 5 4 3 3 3 3 2 2 2 2 2 2 2 3 3 3 3 3 4 5 6 10 10 12 12 12 13 12 6 5 6 7 7 9 9 10 10 9 8 9 10 10 11 14 12 12 9 6 5 6 7 8 9 10 9 9 9 9 9 9 9
6 6 5 4 4 4 3 3 3 2 2 2 2 2 2 2 3 3 3 3 4 5 6 10 11 11 13 14 17 4 5 5 6 6 6 7 9 10 10 10 9 9 9 10 15 18 15 13 8 6 5 5 5 5 5 6 4 5 7 7 8 8 7
7 6 6 5 4 4 3 3 3 2 2 1 2 2 2 2 2 3 4 4 4 5 6 10 11 12 13 14 13 5 4 5 5 6 7 5 7 9 10 11 10 9 9 10 15 18 17 16 6 7 6 5 4 5 7 3 5 6 4 4 4 7 8
8 7 6 5 5 4 3 3 3 1 1 2 2 2 1 2 2 3 4 5 6 4 6 9 12 12 13 14 13 6 4 5 5 5 5 5 5 6 10 16 12 10 10 10 15 15 18 14 7 7 6 5 5 7 7 7 4 1 9 7 8 7 8
8 7 7 6 5 5 3 3 3 2 2 2 2 1 1 2 2 3 4 4 5 5 6 7 11 12 13 13 12 6 5 4 5 5 4 4 4 5 5 10 15 13 11 11 13 14 16 14 8 9 8 7 7 8 7 7 7 7 5 3 1 3 2
8 7 7 7 6 5 3 3 3 3 2 2 2 2 0 2 2 3 2 2 3 5 5 6 9 11 12 13 14 9 5 4 4 4 4 4 4 4 6 6 9 12 12 12 13 14 14 15 10 8 8 7 7 8 9 8 7 6 6 6 6 5 6
9 8 7 7 6 5 4 4 3 3 3 2 2 2 1 1 2 2 2 2 4 5 5 5 7 10 11 12 14 13 5 7 6 5 4 5 5 5 6 7 7 11 12 12 13 14 13 13 13 7 8 7 6 8 11 7 6 6 5 5 5 7 6
9 8 7 7 7 6 4 4 3 3 2 3 3 2 2 1 1 2 2 2 3 4 6 8 5 8 9 10 11 14 8 7 8 6 5 5 5 6 6 6 7 9 11 11 10 12 14 12 11 8 8 10 11 11 8 6 6 5 5 6 7 7 8
9 8 8 8 7 7 6 5 3 2 2 3 3 3 2 1 2 2 2 2 3 3 3 5 7 5 6 8 8 8 9 8 13 7 5 5 6 5 5 6 6 9 10 9 9 9 11 13 10 10 13 13 13 14 11 5 6 6 5 5 6 7 8
10 8 9 8 7 7 6 5 4 3 3 3 4 3 3 3 2 2 2 3 2 2 2 3 6 4 3 4 5 6 7 8 10 7 5 6 5 6 6 5 6 8 8 9 8 6 5 9 8 10 13 13 14 9 7 5 5 5 5 6 7 7 8
Wind_Direction
42 38 25 27 29 20 32 38 33 53 37 28 24 23 15 18 12 14 22 27 26 33 32 35 33 34 33 33 34 37 40 40 38 32 31 33 31 27 20 24 27 26 29 33 21 3 354 8 17 22 22 20 15 12 11 7 8 13 20 18 26 32 30
32 23 28 31 33 29 37 49 35 39 47 30 25 19 13 14 11 12 14 20 27 29 29 36 34 35 37 38 41 43 42 40 36 35 31 27 24 18 16 20 15 18 21 24 13 10 23 16 14 16 9 13 20 17 15 10 10 16 21 23 30 35 29
31 38 23 31 42 17 48 51 52 39 34 36 26 18 9 10 11 10 9 15 21 24 26 32 35 37 34 36 37 38 31 29 32 33 32 24 23 19 19 15 15 3 6 11 7 8 18 24 13 8 10 7 15 12 13 14 15 20 23 22 32 37 33
42 37 24 31 39 44 36 51 52 45 33 30 18 21 8 8 9 8 4 9 15 14 21 27 28 33 31 30 24 21 25 24 20 21 22 16 8 9 5 8 15 11 5 356 357 1 3 12 16 4 356 1 8 1 8 14 28 30 31 28 29 33 33
21 32 32 24 21 30 36 43 50 51 35 34 24 18 14 5 6 3 3 5 12 8 10 16 24 23 28 26 26 15 15 16 14 12 15 6 355 351 356 1 2 15 13 354 353 353 359 358 358 358 353 337 7 22 6 10 29 33 32 34 35 32 33
24 20 22 32 23 29 27 43 38 48 31 28 22 12 13 5 5 3 2 4 4 7 5 8 14 20 18 25 24 18 14 15 10 9 11 11 5 357 348 354 13 14 19 4 358 352 357 349 4 359 350 338 342 359 17 21 23 36 36 32 34 34 32
34 26 23 25 27 26 30 39 44 28 38 18 19 15 3 359 4 359 355 359 1 1 3 6 9 18 17 16 16 12 9 12 11 8 16 14 15 9 2 353 8 13 18 15 11 2 357 352 359 4 345 352 22 42 37 27 24 30 36 35 32 37 39
31 32 30 27 23 21 26 45 37 34 26 26 13 11 2 356 356 353 352 356 0 360 2 5 7 19 24 25 31 23 25 19 20 17 20 19 16 11 9 6 4 12 15 16 18 12 0 352 353 353 351 355 22 43 43 37 40 39 29 43 33 37 42
28 26 35 28 32 19 29 28 46 39 28 20 17 5 4 355 352 346 349 356 356 1 3 5 10 16 18 22 27 31 33 27 26 22 20 19 19 17 15 12 15 21 14 18 21 14 10 4 354 353 354 7 9 33 36 41 35 42 32 30 46 38 41
43 31 26 30 29 33 30 34 42 38 31 18 7 7 351 357 348 346 346 351 357 0 3 7 11 15 16 25 25 27 30 23 30 27 25 24 22 20 20 19 18 18 19 19 30 22 17 11 16 7 8 354 350 17 26 40 36 27 32 31 31 32 35
36 39 22 18 24 33 43 39 34 33 26 5 5 358 346 349 344 343 347 350 354 360 3 5 7 13 13 23 24 30 23 23 29 30 26 26 21 22 23 25 21 20 18 20 21 31 29 23 21 17 6 359 353 9 22 49 48 29 34 46 36 27 30
44 35 27 20 22 29 36 41 41 36 26 7 11 4 352 354 349 348 348 352 355 360 3 5 3 14 13 19 20 25 19 21 27 27 29 22 20 20 21 25 21 21 17 24 22 20 27 29 28 24 1 355 2 349 338 42 64 44 28 47 46 43 35
38 34 29 19 33 32 28 36 36 41 22 13 12 8 2 0 358 350 359 353 1 5 7 9 5 9 16 19 19 19 17 19 25 23 27 30 23 21 21 25 22 21 20 18 21 23 22 21 21 15 12 6 2 356 341 60 75 74 50 47 48 50 43
44 48 28 30 30 39 33 27 33 28 30 18 11 10 11 8 3 357 360 7 5 11 10 16 9 3 11 17 19 16 17 18 19 21 18 25 26 22 20 22 21 22 21 20 18 20 23 17 17 22 18 18 22 14 3 10 69 104 118 107 57 53 36
54 37 36 32 30 42 34 30 24 37 30 22 14 10 14 12 3 8 11 12 17 17 14 20 13 8 9 5 14 11 10 13 17 19 16 19 21 23 25 22 22 20 20 21 20 19 18 17 18 14 14 16 20 20 19 354 15 56 61 88 92 67 72
69 55 43 35 31 30 36 29 25 27 25 17 27 16 17 13 16 14 23 25 24 20 20 19 17 13 11 6 3 10 7 7 9 12 14 15 15 16 23 24 23 21 18 22 22 24 16 15 15 16 12 13 11 13 13 21 8 43 59 61 62 77 74
78 53 52 50 32 27 25 25 27 25 25 21 27 26 23 14 20 24 22 29 30 25 24 20 21 16 15 4 3 3 2 7 3 6 10 13 9 15 18 21 21 20 19 21 20 21 20 15 13 16 9 13 15 9 20 20 35 40 57 57 53 52 57
98 67 48 38 31 27 27 28 27 24 26 34 28 23 30 24 16 29 24 25 27 26 22 19 18 18 21 15 10 6 2 3 2 5 5 10 9 13 16 19 20 19 19 18 17 16 16 15 12 13 9 6 16 15 17 23 30 45 59 62 69 59 64
100 83 49 46 32 26 25 23 31 41 23 26 29 30 29 28 14 24 30 29 28 27 24 18 16 15 19 19 17 14 8 6 8 7 7 8 9 12 18 18 20 20 19 15 12 9 9 13 12 9 7 5 5 9 17 21 25 37 56 60 56 62 49
88 86 62 37 20 28 30 21 18 41 25 20 22 28 29 31 25 23 30 31 33 31 27 20 13 10 15 20 20 18 17 11 16 17 13 15 13 19 21 23 21 20 17 17 10 8 2 7 15 12 6 2 4 3 16 31 28 30 29 50 49 44 57
102 82 61 43 33 24 21 39 29 27 20 23 22 24 22 21 27 33 34 35 37 32 31 25 16 6 3 18 21 23 21 15 17 23 22 21 17 20 30 32 26 23 18 16 13 9 7 0 9 15 11 6 359 7 15 26 33 32 33 31 32 35 43
103 111 112 69 37 35 35 33 25 42 27 38 17 18 18 15 23 28 44 42 41 39 34 28 19 358 349 357 22 27 28 20 22 26 23 25 23 21 26 38 34 24 16 10 22 23 18 11 5 11 7 8 8 4 19 33 32 33 40 37 33 24 27
126 112 121 86 57 38 40 43 42 45 41 28 31 19 13 15 15 27 37 46 46 40 36 34 359 346 341 338 353 25 29 28 29 26 25 25 26 25 26 28 45 27 12 357 30 29 36 12 14 22 17 13 9 17 16 24 30 27 29 33 30 20 25
131 136 111 94 92 77 60 51 47 52 47 32 26 21 12 23 20 21 34 45 48 50 41 20 347 343 340 343 337 14 22 28 25 29 30 26 24 20 20 27 22 29 19 2 19 140 49 39 357 345 23 34 28 29 28 30 32 27 27 32 30 26 24
131 122 149 123 102 80 75 68 68 58 51 49 34 34 33 20 22 25 29 45 50 50 48 18 345 344 344 341 340 341 33 24 26 31 27 24 28 20 19 25 23 25 30 6 351 358 107 137 326 310 237 59 65 43 28 23 12 33 30 36 35 29 18
129 138 136 122 106 109 83 78 72 62 59 41 34 45 37 22 24 26 31 45 46 45 46 22 346 347 340 338 334 332 44 23 29 36 27 30 28 24 18 20 27 22 28 10 3 356 345 16 194 237 250 190 104 72 43 20 15 9 27 34 31 30 18
138 134 136 133 138 118 102 77 67 68 74 75 57 54 52 36 27 30 23 39 54 44 36 7 345 348 337 333 325 318 39 26 37 37 34 30 30 22 19 18 18 23 19 15 9 353 340 343 1 19 32 36 41 57 40 25 9 22 25 27 27 28 22
142 142 144 139 136 120 101 107 95 83 68 54 41 46 50 53 35 21 21 27 52 50 42 6 352 345 339 327 323 300 43 32 38 43 40 39 36 27 20 16 18 22 17 14 10 350 341 330 335 18 14 28 39 44 46 34 20 11 22 27 31 32 36
145 150 151 147 146 131 126 111 98 85 72 66 49 48 63 43 38 33 23 26 44 55 57 21 355 349 342 339 322 324 35 45 44 44 42 48 47 35 26 15 16 18 17 15 358 347 340 327 325 20 13 17 23 44 67 99 72 50 9 20 36 36 37
154 157 154 153 143 135 136 125 115 100 89 72 64 59 55 40 27 27 23 28 30 53 49 24 3 356 349 345 331 22 24 42 40 49 45 38 60 53 37 23 14 14 13 16 356 346 344 327 356 12 16 20 24 26 31 89 167 154 186 239 272 270 271
159 159 159 156 138 138 141 131 126 123 102 101 89 73 43 68 47 42 32 34 11 25 50 39 13 0 350 348 329 339 23 45 36 31 62 43 45 75 72 53 27 17 13 10 352 348 349 336 17 11 14 11 33 31 29 15 11 153 190 223 239 258 276
161 161 163 142 142 147 153 141 128 143 128 123 124 146 19 81 68 65 50 38 4 358 48 47 23 1 354 350 344 348 18 38 37 33 24 57 51 39 83 74 51 25 13 360 351 354 354 350 3 15 2 13 21 28 8 360 12 354 12 19 85 169 213
163 165 157 145 150 148 141 142 146 147 155 174 132 99 189 86 64 65 49 32 43 20 38 47 27 2 4 353 354 340 36 6 31 32 33 22 42 50 42 50 61 29 358 3 359 357 356 357 354 16 6 19 7 7 349 338 20 341 359 14 22 27 54
164 166 156 153 149 149 153 145 149 153 164 130 107 100 87 115 109 101 72 43 56 47 25 24 57 18 7 4 1 350 37 18 5 11 29 25 37 34 34 36 36 23 356 357 3 0 356 355 351 7 22 16 355 314 297 312 6 331 15 15 16 33 39
165 165 157 154 153 155 151 151 153 165 167 139 152 154 167 177 129 100 98 67 74 78 66 28 21 54 12 11 11 5 6 26 353 335 19 27 28 36 28 34 25 9 346 349 354 4 2 355 357 16 357 327 307 316 311 325 8 15 20 21 25 33 32
169 167 160 161 160 156 157 157 155 150 156 161 166 166 168 166 171 129 108 99 98 83 83 82 17 25 44 9 15 15 10 359 334 330 25 30 27 27 35 23 39 6 334 334 335 344 10 358 19 5 340 333 328 310 296 25 5 18 20 25 29 37 31
177 162 162 164 164 160 163 160 166 165 171 185 167 176 163 171 173 145 142 114 105 93 93 88 94 33 36 25 11 12 6 359 353 351 359 33 21 28 24 24 12 331 321 316 312 307 358 13 360 342 345 333 314 310 5 12 24 24 20 29 44 38 29